Regional Weather Roundup
Issued by NWS Bismarck, ND

Home | Current Version | Previous Version | Text Only | Print | Product List | Glossary On
Versions: 1 2 3 4 5 6 7 8 9 10 11 12 13 14 15 16 17 18 19 20 21 22 23 24 25 26 27 28 29 30 31 32 33 34 35 36 37 38 39 40 41 42 43 44 45 46 47 48 49 50
000
ASUS43 KBIS 070510
RWRBIS

NWR BROADCAST TEXT
NATIONAL WEATHER SERVICE BISMARCK ND
1100 PM CST TUE DEC 06 2016

NOTE: "FAIR" INDICATES FEW OR NO CLOUDS BELOW 12,000 FEET WITH NO
SIGNIFICANT WEATHER AND/OR OBSTRUCTIONS TO VISIBILITY.


CITY           SKY/WX    TMP DP  RH WIND       PRES   REMARKS
WILLISTON      CLOUDY     3  -4  72 NW10G21   30.17R WCI -12
MINOT          SNOW       7   3  84 W32G43    29.99R VSB 1/4 WCI -17
MINOT AFB      SNOW       5   1  85 NW36G46   29.97S VSB 1/2 WCI -21
BISMARCK       MIX PCPN   6   4  91 W20G28    30.07R WCI -14
DICKINSON      CLOUDY     0  -6  76 NW24G33   30.07R HAZE    WCI -24
GARRISON         N/A      5   1  83 NW24      30.02R WCI -17
HETTINGER ARPT CLOUDY     3  -3  76 NW23      30.09R WCI -19
JAMESTOWN      LGT SNOW   8   4  83 NW30G44   29.87R VSB 1   WCI -15
BEACH          CLOUDY    -2  -8  78 NW14      30.17R WCI -21
CARRINGTON     SNOW       7   5  92 NW38G51   29.89R VSB 1/4 WCI -19
HAZEN          LGT SNOW   5   0  78 W26G32    30.10R WCI -18
RUGBY            N/A      7   5  92 NW28G40   29.90R FOG     WCI -16
STANLEY        LGT SNOW   3   1  92 NW22G33   30.05S WCI -19
TIOGA          LGT SNOW   3   1  92 NW25G32   30.08R VSB 1   WCI -20
WATFORD CITY   CLOUDY     1  -4  78 NW17      30.15R WCI -19
$$

CITY           SKY/WX    TMP DP  RH WIND       PRES   REMARKS
GRAND FORKS    LGT SNOW  18  13  80 W28G40    29.71R BLWGSNOWWCI  -1
GRAND FORKS AF LGT SNOW  16  10  79 NW30G37   29.73R WCI  -4
DEVILS LAKE    LGT SNOW   9   6  88 W35G41    29.80R VSB 3/4 WCI -15
FARGO          CLOUDY    15   9  76 W31G37    29.79R WCI  -6
CANDO          CLOUDY    10   7  85 W28G36    29.84R FOG     WCI -11
CAVALIER       FOG       18  16  93 NW28G36   29.68R VSB 1/2 WCI  -1
GRAFTON        FAIR      18  16  93 NW29G39   29.71R FOG     WCI  -2
GWINNER        CLOUDY    14   9  79 W32G43    29.87R WCI  -7
LANGDON        SNOW      12  10  92 NW36G49   29.69R VSB 1/4 WCI -11
ROLLA          SNOW      10  10 100 NW33G41   29.80R VSB 1/2 WCI -13
WALHALLA       HVY SNOW  16  16 100 NW24G36   29.70R WCI  -3
$$

CITY           SKY/WX    TMP DP  RH WIND       PRES   REMARKS
ABERDEEN       CLOUDY    11   1  64 W26G36    30.01R WCI -10
MOBRIDGE       CLOUDY     7  -2  66 NW24G38   30.04S WCI -14
BUFFALO          N/A      1  -5  75 NW20      30.03R WCI -20
RAPID CITY     CLOUDY     5  -3  69 NW17      30.10R WCI -14
GLASGOW        CLOUDY     2  -6  69 W26       30.25R WCI -22
SIDNEY         CLOUDY     2  -6  69 NW28G36   30.17S WCI -22
WOLF POINT     CLOUDY     5  -4  66 W13       30.25R WCI -12
GLENDIVE       PTCLDY     0  -8  69 NW18G25   30.19R WCI -21
MILES CITY     CLEAR      1  -7  68 NW12      30.25R WCI -16
BAKER          CLOUDY     1  -5  75 NW20G31   30.13R WCI -20
$$

CITY           SKY/WX    TMP DP  RH WIND       PRES   REMARKS
BILLINGS       CLOUDY     4  -4  69 E10       30.17R WCI -11
GREAT FALLS    CLOUDY    -2  -9  72 NW7       30.28R WCI -15
$$





USA.gov is the U.S. government's official web portal to all federal, state and local government web resources and services.